Regional Weather Roundup
Issued by NWS

Home | Current Version | Previous Version | Graphics & Text | Print | Product List | Glossary On
Versions: 1 2 3 4 5 6 7 8 9 10 11 12 13 14 15 16 17 18 19 20 21 22 23 24 25 26 27 28 29 30 31 32 33 34 35 36 37 38 39 40 41 42 43 44 45 46 47 48 49 50
000
ASUS43 KMKX 271400
RWRWI

WISCONSIN REGIONAL WEATHER ROUNDUP
NATIONAL WEATHER SERVICE MILWAUKEE/SULLIVAN WI
800 AM CST THU NOV 27 2014

NOTE: "FAIR" INDICATES FEW OR NO CLOUDS BELOW 12,000 FEET WITH NO
SIGNIFICANT WEATHER AND/OR OBSTRUCTIONS TO VISIBILITY.

WIZ001-002-006>008-014>016-023>028-271500-
NORTHWEST WISCONSIN

CITY           SKY/WX    TMP DP  RH WIND       PRES   REMARKS
SUPERIOR ARPT  PTCLDY    -6 -10  83 SW5       30.49F WCI -18
ASHLAND        LGT SNOW   2  -1  88 W5        30.44S FOG     WCI  -8
HAYWARD        CLEAR     -5 -11  75 CALM      30.41S
SIREN          CLEAR     -8 -12  83 CALM      30.47R
CUMBERLAND     CLEAR     -4  -9  77 NW9       30.41S WCI -20
RICE LAKE      CLEAR     -3  -8  81 NW5       30.44S WCI -14
CHETEK         CLEAR     -3  -6  84 NW5       30.43R WCI -13
LADYSMITH      CLEAR     -3  -6  84 NW8       30.40S WCI -17
EAU CLAIRE     NOT AVBL
MENOMONIE      PTCLDY    -1  -6  78 W5        30.46R WCI -11
NEW RICHMOND   LGT SNOW  -3  -7  82 NW5       30.48R WCI -13
OSCEOLA        CLEAR     -2  -7  81 NW5       30.52R WCI -12
$$

WIZ003>005-009-010-017-018-271500-
NORTH CENTRAL WISCONSIN

CITY           SKY/WX    TMP DP  RH WIND       PRES   REMARKS
MANITOWISH WTR FLURRIES  -2  -5  87 NW7       30.29S WCI -16
ARBOR VITAE    FLURRIES   4   0  83 NW3       30.29R
WOODRUFF       FLURRIES   4   0  83 NW3       30.29R
RHINELANDER    CLEAR      1  -2  87 W6        30.29R WCI -10
EAGLE RIVER    PTCLDY    -1  -5  83 CALM      30.27R FOG
LAND O LAKES   PTCLDY     2  -1  88 N7        30.27S WCI -11
PHILLIPS       CLEAR     -3  -6  86 CALM      30.33S FOG
TOMAHAWK       MOCLDY     2  -1  85 CALM      30.32R
MEDFORD        PTCLDY     3  -1  81 NW8       30.32R WCI -10
MERRILL        CLEAR      6   2  84 NW7       30.32R WCI  -6
$$

WIZ029-030-035-036-043>047-271500-
CENTRAL WISCONSIN

CITY           SKY/WX    TMP DP  RH WIND       PRES   REMARKS
WAUSAU         CLEAR      8   3  80 NW9       30.32R WCI  -5
MOSINEE        MOCLDY    10   7  85 N8        30.33R WCI  -1
MARSHFIELD     MOCLDY     7   2  80 NW9       30.34R WCI  -7
STEVENS POINT  LGT SNOW  11   7  83 NW7       30.33R WCI   0
WAUPACA        CLOUDY    18  11  75 NW8       30.33R WCI   7
WAUTOMA        NOT AVBL
WISC RAPIDS    LGT SNOW  12   5  73 NW14      30.36R WCI  -3
CAMP DOUGLAS   FLURRIES  10   9  92 NW10      30.38R WCI  -3
$$

WIZ011>013-019>022-031-037>040-048>050-271500-
NORTHEAST WISCONSIN

CITY           SKY/WX    TMP DP  RH WIND       PRES   REMARKS
ANTIGO         CLEAR      4   2  89 NW7       30.28R WCI  -8
SHAWANO        CLOUDY    17   9  71 N7        30.32R WCI   7
OCONTO         MOCLDY    14   5  69 N8        30.32R WCI   2
STURGEON BAY   CLOUDY    18   7  62 N17G23    30.29R WCI   2
GREEN BAY      CLOUDY    16   8  71 N13       30.31R WCI   2
MANITOWOC      NOT AVBL
APPLETON       LGT SNOW  18  12  79 N12       30.30R WCI   5
CLINTONVILLE   CLOUDY    18  12  79 N6        30.31R WCI   9
OSHKOSH        CLOUDY    18  13  80 MISG      30.30R
$$

WIZ032>034-041-042-053>061-271500-
SOUTHWEST WISCONSIN

CITY           SKY/WX    TMP DP  RH WIND       PRES   REMARKS
LA CROSSE      CLEAR      8  -1  66 N12       30.45R WCI  -7
SPARTA         PTCLDY     8   2  79 NW8       30.42R WCI  -5
VIROQUA        CLOUDY    12   8  83 NW10G16   30.36R WCI  -2
BOSCOBEL       CLOUDY    20  12  71 N6        30.40R WCI  12
PRAIRIE DU CHI MOCLDY    16   9  74 NW9       30.41R WCI   4
PLATTEVILLE    CLOUDY    20  14  75 NW14      30.35R WCI   7
$$

WIZ056-057-062-063-064-067-068-271500-
SOUTH CENTRAL WISCONSIN

CITY           SKY/WX    TMP DP  RH WIND       PRES   REMARKS
REEDSBURG      FLURRIES  17  11  80 N12       30.34R WCI   4
BARABOO/DELLS  FLURRIES  16  12  82 NW6       30.34R WCI   8
LONE ROCK      NOT AVBL
MINERAL POINT  FLURRIES  21  14  73 NW13      30.32R WCI   9
MADISON        MOCLDY    19  13  77 NW13      30.34R WCI   6
MIDDLETON      CLOUDY    21  15  78 N8        30.33R WCI  12
WATERTOWN      CLOUDY    19  15  88 NW10      30.30R WCI   7
MONROE         CLOUDY    23  19  86 NW12      30.31R WCI  12
JANESVILLE     NOT AVBL
$$

WIZ051-052-058>065-066-070>072-271500-
SOUTHEAST WISCONSIN

CITY           SKY/WX    TMP DP  RH WIND       PRES   REMARKS
MILWAUKEE      MOCLDY    24  17  74 NW15      30.27R WCI  11
WAUKESHA       CLOUDY    19  16  86 NW12      30.29R WCI   7
MILWAUKEE/TIMM MOCLDY    21  16  79 NW14G21   30.28R WCI   8
RACINE         CLOUDY    23  18  81 NW9       30.29R WCI  13
BURLINGTON     CLOUDY    20  17  89 NW13      30.29R WCI   7
KENOSHA        CLOUDY    23  18  81 NW13      30.28R WCI  11
FOND DU LAC    CLOUDY    19  13  77 NW16      30.30R WCI   4
SHEBOYGAN      CLOUDY    21  15  78 N10       30.28R WCI  10
WEST BEND      CLOUDY    21  18  86 NW12      30.27R WCI   9
JUNEAU         CLEAR     16  12  85 NW5       30.30R WCI   9
$$

LSZ147-162-271500-
LAKE SUPERIOR

STATION/POSITION TIME  TEMP    WIND        PRES    WAVE
                       AIR SEA DIR/SP/G            HT/PER
                 (UTC) (F)     (DEG/KT/KT) (MB)    (FT/S)
DEVILS ISLAND    1300    7     360/ 16/ 18 1032.3R
PORT WING        1300    8     340/  9/ 14 1031.5R
SAXON HARBOR     1300   13     350/ 12/ 15 1029.5R
$$

LMZ867-665-643>646-271500-
LAKE MICHIGAN

STATION/POSITION TIME  TEMP    WIND        PRES    WAVE
                       AIR SEA DIR/SP/G            HT/PER
                 (UTC) (F)     (DEG/KT/KT) (MB)    (FT/S)
CHAMBERS ISLAND  1300   18     330/ 19/ 24 1025.4R
N MID LAKE BUOY  1250   23 42  330/ 21/ 25 1024.4R   5/ 5
NORTHPORT PIER   1306   20     320/ 22     1025.1R
SISTER BAY       1228          340/ 29/ 34   N/A
KEWAUNEE LAKESHO 1300   19     330/  9/ 14 1024.1R
SHEBOYGAN LAKESH 1300   23 35  330/ 13/ 15 1025.9R
PORT WASHINGTON  1340   22     310/  7/ 10 1026.1R
MILWAUKEE LAKESH 1300   24     310/  8/ 12   N/A
S MID LAKE BUOY  1250   31 42  310/ 17/ 21 1023.7R   4/ 5
KENOSHA   LAKESH 1300   23     310/ 13/ 17 1024.4R
$$

TC  - TEMPERATURE IN CELSIUS
VSB - VISIBILITY IN STATUTE MILES
WCI - WIND CHILL INDEX
HX  - HEAT INDEX



USA.gov is the U.S. government's official web portal to all federal, state and local government web resources and services.